Madison, WI

6:28 AM CST on November 21, 2017 (GMT -0600)
Dane County Regional-Truax

Weather History for KMSN - January, 2015

Change the Weather History Date:

Tuesday, January 27, 2015

  Actual Average Record
Temperature  
Mean Temperature 27 °F 19 °F  
Max Temperature 29 °F 27 °F 55 °F (2002)
Min Temperature 24 °F 11 °F -19 °F (1915)
Degree Days  
Heating Degree Days 38 46  
Month to date heating degree days 1236 1251  
Since 1 July heating degree days 4048 4130  
Cooling Degree Days 0 0  
Month to date cooling degree days 0 0  
Year to date cooling degree days 0 0  
Moisture  
Dew Point 22 °F    
Average Humidity 84    
Maximum Humidity 92    
Minimum Humidity 75    
Precipitation  
Precipitation T in 0.04 in 1.14 in (1944)
Month to date precipitation 0.52 1.07  
Year to date precipitation 0.52 1.07  
Snow  
Snow T in 0.40 in 5.40 in (1949)
Month to date snowfall 8.8 11.2  
Since 1 July snowfall 17.4 28.8  
Snow Depth 1.00 in    
Sea Level Pressure  
Sea Level Pressure 30.16 in    
Wind  
Wind Speed 5 mph (NE)    
Max Wind Speed 9 mph    
Max Gust Speed 13 mph    
Visibility 5 miles    
Events Snow    
T = Trace of Precipitation, MM = Missing Value Source: NWS Daily Summary

Daily Weather History Graph

Daily Weather History Graph

Search for Another Location

Airport or City:

Trip Planner

Search our weather history database for the weather conditions in past years. The results will help you decide how hot, cold, wet, or windy it might be!

Date:

Astronomy

Jan. 27, 2015 Rise Set
Actual Time 7:17 AM CST 5:02 PM CST
Civil Twilight 6:47 AM CST 5:33 PM CST
Nautical Twilight 6:12 AM CST 6:07 PM CST
Astronomical Twilight 5:39 AM CST 6:41 PM CST
Moon 11:28 AM CST (1/27) 12:43 AM CST (1/27)
Length of Visible Light 10h 46m
Length of Day
9h 44m
First Quarter, 56% of the Moon is Illuminated
Jan 27
First Quarter
Feb 3
Full
Feb 11
Last Quarter
Feb 18
New
Feb 25
First Quarter

Hourly Weather History & Observations

Time (CST) Temp. Windchill Dew Point Humidity Pressure Visibility Wind Dir Wind Speed Gust Speed Precip Events Conditions
12:30 AM 24.1 °F - 21.9 °F 91% 29.92 in 5.0 mi Calm Calm - N/A   Overcast
12:53 AM 25.0 °F - 21.9 °F 88% 29.97 in 5.0 mi Calm Calm - N/A   Overcast
1:24 AM 25.0 °F - 21.9 °F 88% 29.94 in 4.0 mi Calm Calm - N/A   Overcast
1:53 AM 24.1 °F 18.2 °F 21.9 °F 91% 30.00 in 4.0 mi NNW 4.6 mph - N/A   Overcast
2:26 AM 25.0 °F 19.3 °F 21.9 °F 88% 29.97 in 4.0 mi North 4.6 mph - N/A   Overcast
2:53 AM 25.0 °F 19.3 °F 21.9 °F 88% 30.03 in 4.0 mi NNW 4.6 mph - N/A   Overcast
3:41 AM 25.0 °F 18.1 °F 21.9 °F 88% 30.00 in 5.0 mi North 5.8 mph - N/A   Overcast
3:53 AM 25.0 °F 18.1 °F 21.9 °F 88% 30.05 in 5.0 mi NNW 5.8 mph - N/A   Overcast
4:53 AM 25.0 °F 17.1 °F 21.9 °F 88% 30.07 in 4.0 mi NNW 6.9 mph - N/A   Overcast
5:53 AM 25.0 °F 17.1 °F 21.0 °F 85% 30.10 in 4.0 mi NNW 6.9 mph - N/A   Overcast
6:53 AM 24.1 °F 16.0 °F 21.9 °F 91% 30.13 in 5.0 mi NNW 6.9 mph - N/A   Overcast
7:53 AM 25.0 °F 16.3 °F 21.9 °F 88% 30.15 in 3.0 mi North 8.1 mph - N/A   Overcast
8:27 AM 25.0 °F 18.1 °F 21.9 °F 88% 30.13 in 2.0 mi North 5.8 mph - N/A   Overcast
8:53 AM 25.0 °F 17.1 °F 21.9 °F 88% 30.18 in 2.0 mi North 6.9 mph - N/A   Overcast
9:03 AM 25.0 °F 16.3 °F 23.0 °F 92% 30.14 in 1.8 mi North 8.1 mph - N/A   Overcast
9:29 AM 25.0 °F 18.1 °F 23.0 °F 92% 30.15 in 1.5 mi NNE 5.8 mph - N/A   Overcast
9:53 AM 26.1 °F 18.4 °F 23.0 °F 88% 30.20 in 1.0 mi NNE 6.9 mph - N/A   Overcast
10:17 AM 26.1 °F 19.4 °F 24.1 °F 92% 30.17 in 1.0 mi NNE 5.8 mph - N/A   Overcast
10:53 AM 27.0 °F 21.6 °F 24.1 °F 89% 30.21 in 1.0 mi NE 4.6 mph - N/A   Overcast
11:31 AM 27.0 °F 19.5 °F 24.1 °F 89% 30.18 in 3.0 mi East 6.9 mph - N/A   Overcast
11:53 AM 27.0 °F 19.5 °F 24.1 °F 89% 30.22 in 3.0 mi East 6.9 mph - N/A   Overcast
12:53 PM 28.0 °F 22.8 °F 23.0 °F 81% 30.22 in 4.0 mi ENE 4.6 mph - 0.00 in Snow Light Snow
1:11 PM 28.0 °F - 23.0 °F 81% 30.18 in 4.0 mi Calm Calm - 0.00 in Snow Light Snow
1:53 PM 28.0 °F - 23.0 °F 81% 30.22 in 5.0 mi Calm Calm - 0.00 in Snow Light Snow
2:53 PM 28.0 °F 21.7 °F 23.0 °F 81% 30.24 in 5.0 mi ENE 5.8 mph - 0.00 in Snow Light Snow
3:07 PM 28.0 °F 21.7 °F 23.0 °F 81% 30.21 in 5.0 mi NE 5.8 mph - 0.00 in Snow Light Snow
3:53 PM 28.0 °F 21.7 °F 21.9 °F 78% 30.25 in 8.0 mi NE 5.8 mph - 0.00 in Snow Light Snow
4:53 PM 27.0 °F 23.0 °F 21.9 °F 81% 30.25 in 10.0 mi ENE 3.5 mph - 0.00 in   Overcast
5:53 PM 27.0 °F - 21.9 °F 81% 30.27 in 10.0 mi Calm Calm - N/A   Overcast
6:53 PM 27.0 °F 23.0 °F 21.0 °F 78% 30.25 in 10.0 mi East 3.5 mph - N/A   Overcast
7:53 PM 26.1 °F 20.5 °F 19.9 °F 78% 30.25 in 10.0 mi ESE 4.6 mph - N/A   Overcast
8:53 PM 25.0 °F - 19.0 °F 78% 30.26 in 10.0 mi Calm Calm - N/A   Overcast
9:53 PM 25.0 °F 20.7 °F 19.9 °F 81% 30.27 in 10.0 mi SSE 3.5 mph - N/A   Overcast
10:53 PM 26.1 °F 20.5 °F 21.0 °F 81% 30.26 in 10.0 mi SE 4.6 mph - N/A   Overcast
11:53 PM 25.0 °F 18.1 °F 19.9 °F 81% 30.27 in 10.0 mi SSE 5.8 mph - N/A   Overcast